Location: San Antonio
(29.4240°N, 98.4930°W)
Time: 21:24:46
(UTC-05:00)

Tiangong - Pass Details

Date: 21 June 2024
Orbit: 374 x 377 km, 41.5° (Epoch: 18 July)

Event Time Altitude Azimuth Distance (km) Brightness Sun altitude
Rises 21:39:39 0° 281° (WNW) 2,243 3.0 -12.4°
Reaches altitude 10° 21:42:28 10° 254° (WSW) 1,386 1.2 -12.9°
Maximum altitude 21:44:07 14° 222° (SW) 1,188 0.4 -13.2°
Drops below altitude 10° 21:45:47 10° 189° (S) 1,378 0.4 -13.5°
Enters shadow 21:45:54 10° 187° (S) 1,406 0.4 -13.5°
